SCP
0 0 0 -0 -0 -0 -0 0 0 0 0 0 0 0 0 0 0 0 0 0 0 0 0 0 0 0 0 0 0 0 0 0 0 0 -0 0 0 0 0 0 0 0 0 0
-0 0 0 -0 -0 -0 0 0 0 0 0 0 -0 -0 -0 0 0 0 0 0 0 0 0 0 0 0 0 0 0 0 0 0 0 0 0 0 0 0 0 0 0 0 0 0
-0 0 -0 -0 -0 -0 0 0 0 -0 0 0 0 0 -0 -0 -0 -0 0 0 0 0 0 0 0 0 0 0 0 0 0 0 0 0 0 0 0 0 0 0 0 0 0 0
-0 -0 0 -0 -0 -0 0 0 -0 0 -0 0 0 -0 0 -0 -0 -0 -0 -0 -0 0 0 0 0 0 0 0 0 0 -0 0 0 0 0 0 0 0 0 0 0 0 0 0
-0 0 0 -0 -0 0 0 0 -0 -0 0 -0 0 0 0 0 0 0 0 0 0 0 0 0 0 0 0 0 0 0 0 0 0 0 0 0 0 0 0 0 0 0 0 0
0 -0 0 0 -0 -0 0 -0 -0 0 -0 -0 -0 -0 -0 -0 0 0 0 0 0 0 0 0 0 0 0 0 0 0 0 0 0 0 0 0 0 0 -0 -0 -0 0 0 0
0 0 -0 0 0 0 0 0 0 0 -0 0 -0 -0 -0 -0 -0 -0 -0 0 -0 -0 0 -0 0 0 0 0 0 0 0 0 0 0 0 0 0 0 0 0 -0 -0 0 0
0 0 0 0 0 0 0 0 0 0 0 0 -0 0 -0 -0 -0 -0 0 -0 -0 -0 0 0 0 0 0 0 0 0 0 0 0 0 0 0 0 0 0 0 0 0 0 0
0 0 0 0 0 0 0 0 0 0 0 0 0 0 0 0 -0 -0 0 -0 -0 0 0 0 0 0 0 0 0 0 0 0 0 0 0 0 0 0 0 0 0 0 0 0
-0 0 -0 -0 0 0 0 0 0 0 0 0 0 0 0 0 0 0 -0 -0 0 -0 0 0 0 0 0 0 0 0 0 0 0 0 0 0 0 0 0 -0 0 0 0 0
-0 -0 -0 -0 0 0 0 0 0 0 0 0 0 0 0 0 0 0 0 0 -0 0 0 0 0 0 0 0 -0 0 0 0 0 0 0 0 0 0 0 0 0 0 -0 0
-0 -0 -0 -0 0 0 0 0 0 0 0 0 0 0 0 0 0 0 0 0 0 0 0 0 0 0 0 -0 -0 0 0 0 0 0 0 0 -0 -0 0 0 -0 0 -0 -0
-0 -0 -0 -0 0 0 0 0 0 0 0 0 0 0 0 0 0 0 0 0 0 0 0 0 0 0 0 0 0 0 0 0 0 0 0 0 0 0 0 0 -0 -0 -0 -0
-0 -0 -0 -0 0 0 0 0 0 0 0 0 0 0 0 0 0 0 0 0 0 0 0 0 0 0 0 0 0 0 0 0 0 0 0 0 0 0 0 0 0 0 -0 -0
-0 -0 -0 0 0 0 0 0 0 0 0 0 0 -0 -0 0 0 0 0 0 0 0 0 0 0 0 0 0 0 0 0 0 0 0 0 0 0 0 0 0 0 0 0 0
0 0 0 0 0 0 0 0 0 0 0 0 0 0 0 0 0 0 0 0 0 0 0 0 0 0 0 0 0 0 0 0 0 0 0 0 0 0 0 -0 0 0 0 0
0 0 0 0 0 0 0 0 0 0 0 0 0 0 0 0 0 0 0 0 0 0 0 0 0 0 0 0 0 0 0 0 0 0 0 0 0 0 0 -0 -0 -0 0 0
0 0 0 0 0 0 0 0 0 0 0 0 0 0 0 0 0 0 0 0 0 0 0 0 0 0 0 0 0 0 0 0 0 0 0 0 0 0 0 0 -0 -0 0 0
0 0 0 0 0 0 0 0 0 0 0 0 0 0 0 0 0 0 0 0 0 0 0 0 0 0 0 0 0 0 0 0 0 0 0 0 0 0 0 0 -0 -0 -0 0
0 0 0 0 0 0 0 0 0 0 0 0 0 0 0 0 0 0 0 0 0 0 0 0 0 0 0 0 0 0 0 0 0 0 0 0 0 0 0 0 0 -0 -0 -0
0 0 0 0 0 0 0 0 0 0 0 0 0 0 0 0 0 0 0 0 0 0 0 0 0 0 0 0 0 0 0 0 0 0 0 0 0 0 0 0 0 -0 -0 -0
0 0 0 0 0 0 0 0 0 0 0 0 0 0 0 0 0 0 0 0 0 0 -0 -0 0 0 -0 -0 0 0 0 0 0 0 -0 0 0 0 0 0 0 0 -0 -0
0 0 0 0 0 0 0 0 0 0 0 0 0 0 0 0 0 0 0 -0 0 -0 -0 -0 -0 -0 -0 0 -0 0 0 0 0 0 0 -0 -0 0 0 0 0 0 -0 -0
0 0 0 0 0 0 0 0 0 0 0 0 0 0 0 0 0 0 0 0 0 -0 0 -0 0 -0 -0 -0 0 0 0 0 0 0 0 0 -0 0 0 0 0 0 -0 -0
0 0 0 0 0 0 0 0 0 0 0 0 0 0 0 0 0 0 0 0 0 0 0 0 0 0 -0 0 0 0 0 0 0 0 0 0 0 0 0 0 0 0 0 -0
0 0 0 0 0 0 0 0 0 0 0 0 0 0 0 0 0 0 0 0 0 0 0 0 0 0 0 0 0 0 0 0 0 0 0 0 0 0 0 0 0 0 -0 -0
0 0 0 0 0 0 0 0 0 0 0 0 0 0 0 0 0 0 0 0 0 0 0 0 0 0 0 0 0 0 0 0 0 0 0 0 0 0 0 0 0 0 -0 -0
Wind_Speed_500mb
51 47 46 43 44 38 20 11 8 43 6 13 2 7 7 19 23 34 15 18 17 10 14 12 10 8 5 23 13 9 7 7 6 10 8 10 8 12 11 8 15 2 9 9
46 43 39 39 42 44 31 11 12 53 22 8 9 12 24 34 20 16 10 17 14 11 10 9 17 12 37 36 14 9 10 8 8 20 13 17 12 14 8 5 3 3 9 8
43 40 33 34 36 34 31 11 8 23 45 43 10 11 19 10 33 27 27 13 26 15 16 12 10 17 21 31 27 24 12 7 9 6 4 10 16 28 16 8 4 15 10 16
40 37 33 31 28 29 20 16 5 11 6 17 19 19 8 18 11 17 34 14 20 9 11 12 10 13 14 19 34 16 9 4 8 6 13 21 25 27 24 14 9 4 19 24
37 35 33 35 24 21 33 11 10 14 34 12 25 14 10 7 5 9 7 11 12 13 9 4 6 10 9 6 18 11 12 3 8 4 8 18 24 29 23 24 18 10 20 21
32 31 34 34 32 22 22 19 15 6 21 10 9 3 3 3 6 14 19 13 7 10 6 23 26 26 21 18 5 5 1 5 6 4 7 10 14 9 6 16 15 7 9 12
23 23 31 34 29 24 29 28 17 12 4 6 3 2 11 11 6 6 10 22 8 10 29 33 22 17 24 27 27 18 8 9 6 5 6 1 12 14 15 19 24 21 15 25
14 15 25 27 27 23 19 26 17 11 3 10 7 15 10 19 18 7 15 8 7 20 15 7 9 10 11 9 12 16 4 9 4 5 6 13 19 18 9 6 11 25 23 29
11 7 14 21 22 20 18 26 19 9 5 6 16 12 13 4 6 5 11 10 6 17 9 8 6 4 3 8 16 9 10 7 8 4 4 11 3 28 40 22 9 29 31 31
11 4 4 14 17 11 16 23 16 6 6 9 6 5 4 3 3 3 4 6 10 13 7 6 6 3 3 4 6 8 8 7 2 10 11 9 16 47 48 12 3 40 29 28
11 5 3 6 12 12 7 17 21 11 4 3 8 5 3 2 4 7 2 6 8 7 7 4 3 4 3 3 5 4 3 3 3 5 9 11 35 16 10 19 45 34 27 29
13 9 6 3 4 7 9 11 15 14 7 11 17 14 11 8 1 12 7 12 8 8 7 3 5 4 3 2 2 5 4 6 4 9 8 5 17 18 19 26 35 50 47 38
14 10 7 5 7 9 8 4 12 12 10 14 12 11 12 17 19 8 10 10 10 11 11 11 5 4 7 7 6 2 3 4 4 7 6 19 50 21 28 36 40 45 50 50
15 13 8 3 10 13 12 9 5 8 10 6 8 3 26 16 27 13 10 11 15 17 16 8 6 6 17 8 7 6 9 3 8 11 28 29 12 38 43 46 44 42 45 44
17 15 10 8 9 11 11 4 13 4 8 7 23 38 44 32 32 21 20 21 24 19 10 4 5 8 8 7 7 6 20 12 10 10 14 14 40 42 46 45 49 52 48 47
15 14 12 10 13 12 8 2 5 7 12 10 7 12 19 35 40 31 32 29 27 21 12 12 14 13 17 6 7 17 41 29 37 16 16 27 41 44 37 42 54 47 38 38
16 16 15 13 16 16 8 4 5 4 7 9 13 13 8 33 40 35 35 31 26 23 12 14 15 15 28 6 9 18 35 30 28 35 35 38 32 32 37 35 57 38 34 32
18 20 20 19 20 17 7 4 17 17 7 8 5 10 8 30 22 17 30 16 24 16 17 11 10 17 4 5 22 17 19 19 22 35 34 32 36 43 39 37 47 43 38 35
18 19 20 15 5 3 6 12 12 20 15 5 7 4 7 8 21 14 16 14 7 10 12 14 16 4 6 16 22 25 26 21 17 21 25 29 34 31 35 34 37 37 34 32
15 13 8 6 7 11 12 5 3 5 7 9 11 10 6 10 6 7 7 5 5 6 10 17 5 7 21 19 18 20 23 19 9 14 23 23 16 20 27 27 28 33 30 27
6 8 4 8 13 4 2 5 6 1 6 12 16 18 7 14 6 4 15 5 3 4 5 5 4 4 4 14 15 22 24 16 9 16 20 19 17 22 23 25 23 29 24 27
7 13 22 10 7 5 8 1 4 6 8 7 7 12 16 7 6 3 3 2 3 5 4 3 4 4 13 9 8 26 23 20 13 14 18 24 20 18 21 20 22 20 23 24
15 6 4 9 9 6 4 4 7 6 8 7 10 14 9 4 13 8 3 4 0 2 3 5 3 20 12 8 7 15 25 26 14 10 17 26 19 14 14 14 17 14 19 23
5 6 7 9 5 7 9 10 8 19 23 38 22 1 6 8 7 3 2 6 2 4 4 4 6 35 21 10 12 16 24 24 19 10 12 14 14 14 6 8 13 13 14 16
6 7 6 7 10 14 19 22 19 19 15 6 6 4 2 2 3 3 4 5 6 1 4 5 16 28 17 19 19 20 16 22 21 17 11 13 13 14 6 5 6 8 12 10
7 10 0 11 0 9 7 7 13 13 11 4 2 0 4 4 3 7 7 4 4 6 9 22 15 25 22 16 15 9 9 19 18 20 13 6 20 14 5 10 4 1 9 9
8 13 15 12 16 19 16 8 5 5 20 1 6 7 4 3 5 3 5 6 7 10 8 10 16 16 17 14 15 13 11 14 19 21 5 8 13 17 5 7 8 14 5 9
Wind_Direction_500mb
1 1 1 5 15 25 11 50 33 5 22 41 101 61 26 77 22 33 30 46 61 59 19 29 71 70 41 24 47 41 331 125 307 259 260 266 165 62 73 53 311 239 140 271
7 7 9 13 11 22 19 32 5 30 87 60 17 49 77 75 50 26 24 30 43 34 51 69 34 33 16 47 47 41 338 15 7 336 12 16 31 21 63 245 339 259 120 255
12 12 16 16 12 18 26 48 28 36 53 56 115 98 40 62 35 37 53 62 51 36 30 20 39 16 4 24 34 48 59 72 122 209 230 284 319 333 357 95 19 331 262 338
15 16 17 15 23 30 60 47 37 41 356 22 58 65 49 50 21 13 33 41 49 56 24 21 22 6 352 8 28 20 87 63 36 316 346 335 319 321 333 310 218 222 298 316
19 20 22 17 10 44 64 70 23 22 50 47 55 29 358 61 27 50 35 82 28 44 71 90 320 25 27 295 356 33 0 281 348 355 27 3 316 307 306 295 294 266 301 300
26 27 33 31 41 82 67 62 43 77 45 33 69 342 302 299 77 16 61 103 84 12 337 323 303 291 273 260 295 332 336 110 40 286 12 1 306 292 336 313 317 300 316 290
33 36 42 36 36 53 61 36 32 70 351 66 124 62 43 35 113 144 40 72 73 323 321 307 296 273 266 267 274 222 189 142 144 243 59 243 248 305 303 286 49 34 24 12
38 42 44 43 40 49 65 47 50 54 60 41 65 80 40 33 29 91 97 76 47 348 345 31 31 2 23 47 66 44 112 137 146 155 189 281 309 320 319 56 57 18 11 8
25 56 51 53 46 43 59 51 43 47 90 335 73 96 57 70 5 9 72 39 33 26 50 52 79 62 346 328 337 13 39 76 121 108 188 235 114 327 327 40 272 6 3 2
2 67 44 53 41 30 50 46 46 36 19 63 52 119 197 149 102 159 46 9 29 35 18 64 60 99 220 34 337 332 345 5 152 218 241 269 0 331 322 203 243 334 348 353
359 24 263 44 27 28 47 34 33 11 330 340 37 39 55 98 223 142 214 77 16 43 68 84 145 126 246 177 261 290 348 52 338 330 253 246 2 359 345 331 317 315 317 323
1 11 260 232 341 347 353 4 27 358 280 267 284 291 262 275 181 148 149 150 163 156 103 141 116 169 160 121 293 42 167 178 225 194 247 281 335 313 285 316 303 303 305 307
358 351 308 238 262 290 329 22 354 5 337 301 266 254 221 239 233 236 178 168 166 162 144 142 132 152 131 181 230 206 189 149 230 330 240 311 318 304 301 308 305 301 304 302
356 352 347 356 284 281 295 312 235 358 327 295 283 234 212 222 220 243 228 196 165 147 167 133 149 179 191 190 181 179 205 214 228 256 280 308 228 337 324 316 315 309 309 301
355 345 346 7 318 298 312 322 201 216 308 276 287 295 234 215 218 215 207 195 197 170 168 170 217 205 147 170 157 220 187 196 184 220 228 268 285 322 341 330 326 323 315 318
337 330 331 341 311 302 314 245 244 272 281 304 309 305 265 218 217 211 208 210 208 215 195 204 207 209 165 160 207 221 205 222 233 242 264 287 298 301 329 337 336 330 317 313
323 313 315 321 303 297 273 253 277 236 288 297 300 289 254 223 207 201 211 222 214 225 235 232 221 178 180 140 227 241 217 229 243 251 267 276 293 295 318 327 349 338 339 307
317 314 316 317 305 304 323 316 252 272 270 242 258 272 282 204 191 196 208 202 208 220 228 239 170 131 126 229 237 229 220 220 240 244 252 272 299 300 315 312 342 348 349 349
322 318 321 329 13 61 333 296 248 194 217 207 247 225 278 196 209 198 183 207 186 208 218 220 147 126 221 220 193 205 215 217 237 239 257 273 280 310 319 305 343 358 358 8
328 326 10 14 14 333 316 337 277 222 213 231 259 244 263 268 208 213 105 241 189 238 214 161 116 236 247 195 183 220 212 214 244 223 246 274 296 311 306 315 341 359 5 2
338 5 10 328 326 312 269 277 299 259 261 225 243 245 240 288 223 163 196 207 265 327 297 133 185 286 294 205 226 214 203 205 201 246 260 286 305 304 298 326 332 6 7 9
277 282 293 271 205 177 251 187 192 239 249 243 246 286 295 292 247 121 9 274 163 285 248 30 25 321 180 250 293 210 212 217 243 236 246 268 283 301 316 318 331 351 14 23
287 248 230 201 178 73 192 263 267 253 236 249 284 317 330 32 27 78 81 289 312 31 55 140 206 222 232 264 351 264 224 232 252 244 252 264 277 301 323 311 336 349 6 12
243 225 295 178 208 235 193 198 233 271 264 282 310 198 44 17 47 353 87 248 82 70 352 2 218 219 251 249 323 241 225 218 238 237 269 258 269 281 302 276 335 16 32 53
253 243 247 198 205 253 262 278 267 306 285 252 150 73 203 265 159 194 345 38 49 358 303 272 270 217 235 271 300 231 219 222 221 225 244 247 231 245 254 260 326 17 38 63
244 240 243 138 252 250 225 276 246 8 6 96 58 159 26 351 109 49 29 78 246 231 229 301 274 240 247 260 273 309 258 222 220 199 225 241 229 229 224 207 215 91 50 37
244 228 225 208 266 240 182 182 57 55 24 19 73 36 290 336 62 48 165 203 230 258 315 295 276 266 237 250 259 275 269 294 241 243 244 268 212 213 223 181 204 191 136 73
Wind_Speed_850mb
51 47 46 43 44 38 20 11 8 43 6 13 2 7 7 19 23 34 15 18 17 10 14 12 10 8 5 23 13 9 7 7 6 10 8 10 8 12 11 8 15 2 9 9
46 43 39 39 42 44 31 11 12 53 22 8 9 12 24 34 20 16 10 17 14 11 10 9 17 12 37 36 14 9 10 8 8 20 13 17 12 14 8 5 3 3 9 8
43 40 33 34 36 34 31 11 8 23 45 43 10 11 19 10 33 27 27 13 26 15 16 12 10 17 21 31 27 24 12 7 9 6 4 10 16 28 16 8 4 15 10 16
40 37 33 31 28 29 20 16 5 11 6 17 19 19 8 18 11 17 34 14 20 9 11 12 10 13 14 19 34 16 9 4 8 6 13 21 25 27 24 14 9 4 19 24
37 35 33 35 24 21 33 11 10 14 34 12 25 14 10 7 5 9 7 11 12 13 9 4 6 10 9 6 18 11 12 3 8 4 8 18 24 29 23 24 18 10 20 21
32 31 34 34 32 22 22 19 15 6 21 10 9 3 3 3 6 14 19 13 7 10 6 23 26 26 21 18 5 5 1 5 6 4 7 10 14 9 6 16 15 7 9 12
23 23 31 34 29 24 29 28 17 12 4 6 3 2 11 11 6 6 10 22 8 10 29 33 22 17 24 27 27 18 8 9 6 5 6 1 12 14 15 19 24 21 15 25
14 15 25 27 27 23 19 26 17 11 3 10 7 15 10 19 18 7 15 8 7 20 15 7 9 10 11 9 12 16 4 9 4 5 6 13 19 18 9 6 11 25 23 29
11 7 14 21 22 20 18 26 19 9 5 6 16 12 13 4 6 5 11 10 6 17 9 8 6 4 3 8 16 9 10 7 8 4 4 11 3 28 40 22 9 29 31 31
11 4 4 14 17 11 16 23 16 6 6 9 6 5 4 3 3 3 4 6 10 13 7 6 6 3 3 4 6 8 8 7 2 10 11 9 16 47 48 12 3 40 29 28
11 5 3 6 12 12 7 17 21 11 4 3 8 5 3 2 4 7 2 6 8 7 7 4 3 4 3 3 5 4 3 3 3 5 9 11 35 16 10 19 45 34 27 29
13 9 6 3 4 7 9 11 15 14 7 11 17 14 11 8 1 12 7 12 8 8 7 3 5 4 3 2 2 5 4 6 4 9 8 5 17 18 19 26 35 50 47 38
14 10 7 5 7 9 8 4 12 12 10 14 12 11 12 17 19 8 10 10 10 11 11 11 5 4 7 7 6 2 3 4 4 7 6 19 50 21 28 36 40 45 50 50
15 13 8 3 10 13 12 9 5 8 10 6 8 3 26 16 27 13 10 11 15 17 16 8 6 6 17 8 7 6 9 3 8 11 28 29 12 38 43 46 44 42 45 44
17 15 10 8 9 11 11 4 13 4 8 7 23 38 44 32 32 21 20 21 24 19 10 4 5 8 8 7 7 6 20 12 10 10 14 14 40 42 46 45 49 52 48 47
15 14 12 10 13 12 8 2 5 7 12 10 7 12 19 35 40 31 32 29 27 21 12 12 14 13 17 6 7 17 41 29 37 16 16 27 41 44 37 42 54 47 38 38
16 16 15 13 16 16 8 4 5 4 7 9 13 13 8 33 40 35 35 31 26 23 12 14 15 15 28 6 9 18 35 30 28 35 35 38 32 32 37 35 57 38 34 32
18 20 20 19 20 17 7 4 17 17 7 8 5 10 8 30 22 17 30 16 24 16 17 11 10 17 4 5 22 17 19 19 22 35 34 32 36 43 39 37 47 43 38 35
18 19 20 15 5 3 6 12 12 20 15 5 7 4 7 8 21 14 16 14 7 10 12 14 16 4 6 16 22 25 26 21 17 21 25 29 34 31 35 34 37 37 34 32
15 13 8 6 7 11 12 5 3 5 7 9 11 10 6 10 6 7 7 5 5 6 10 17 5 7 21 19 18 20 23 19 9 14 23 23 16 20 27 27 28 33 30 27
6 8 4 8 13 4 2 5 6 1 6 12 16 18 7 14 6 4 15 5 3 4 5 5 4 4 4 14 15 22 24 16 9 16 20 19 17 22 23 25 23 29 24 27
7 13 22 10 7 5 8 1 4 6 8 7 7 12 16 7 6 3 3 2 3 5 4 3 4 4 13 9 8 26 23 20 13 14 18 24 20 18 21 20 22 20 23 24
15 6 4 9 9 6 4 4 7 6 8 7 10 14 9 4 13 8 3 4 0 2 3 5 3 20 12 8 7 15 25 26 14 10 17 26 19 14 14 14 17 14 19 23
5 6 7 9 5 7 9 10 8 19 23 38 22 1 6 8 7 3 2 6 2 4 4 4 6 35 21 10 12 16 24 24 19 10 12 14 14 14 6 8 13 13 14 16
6 7 6 7 10 14 19 22 19 19 15 6 6 4 2 2 3 3 4 5 6 1 4 5 16 28 17 19 19 20 16 22 21 17 11 13 13 14 6 5 6 8 12 10
7 10 0 11 0 9 7 7 13 13 11 4 2 0 4 4 3 7 7 4 4 6 9 22 15 25 22 16 15 9 9 19 18 20 13 6 20 14 5 10 4 1 9 9
8 13 15 12 16 19 16 8 5 5 20 1 6 7 4 3 5 3 5 6 7 10 8 10 16 16 17 14 15 13 11 14 19 21 5 8 13 17 5 7 8 14 5 9
Wind_Direction_850mb
1 1 1 5 15 25 11 50 33 5 22 41 101 61 26 77 22 33 30 46 61 59 19 29 71 70 41 24 47 41 331 125 307 259 260 266 165 62 73 53 311 239 140 271
7 7 9 13 11 22 19 32 5 30 87 60 17 49 77 75 50 26 24 30 43 34 51 69 34 33 16 47 47 41 338 15 7 336 12 16 31 21 63 245 339 259 120 255
12 12 16 16 12 18 26 48 28 36 53 56 115 98 40 62 35 37 53 62 51 36 30 20 39 16 4 24 34 48 59 72 122 209 230 284 319 333 357 95 19 331 262 338
15 16 17 15 23 30 60 47 37 41 356 22 58 65 49 50 21 13 33 41 49 56 24 21 22 6 352 8 28 20 87 63 36 316 346 335 319 321 333 310 218 222 298 316
19 20 22 17 10 44 64 70 23 22 50 47 55 29 358 61 27 50 35 82 28 44 71 90 320 25 27 295 356 33 0 281 348 355 27 3 316 307 306 295 294 266 301 300
26 27 33 31 41 82 67 62 43 77 45 33 69 342 302 299 77 16 61 103 84 12 337 323 303 291 273 260 295 332 336 110 40 286 12 1 306 292 336 313 317 300 316 290
33 36 42 36 36 53 61 36 32 70 351 66 124 62 43 35 113 144 40 72 73 323 321 307 296 273 266 267 274 222 189 142 144 243 59 243 248 305 303 286 49 34 24 12
38 42 44 43 40 49 65 47 50 54 60 41 65 80 40 33 29 91 97 76 47 348 345 31 31 2 23 47 66 44 112 137 146 155 189 281 309 320 319 56 57 18 11 8
25 56 51 53 46 43 59 51 43 47 90 335 73 96 57 70 5 9 72 39 33 26 50 52 79 62 346 328 337 13 39 76 121 108 188 235 114 327 327 40 272 6 3 2
2 67 44 53 41 30 50 46 46 36 19 63 52 119 197 149 102 159 46 9 29 35 18 64 60 99 220 34 337 332 345 5 152 218 241 269 0 331 322 203 243 334 348 353
359 24 263 44 27 28 47 34 33 11 330 340 37 39 55 98 223 142 214 77 16 43 68 84 145 126 246 177 261 290 348 52 338 330 253 246 2 359 345 331 317 315 317 323
1 11 260 232 341 347 353 4 27 358 280 267 284 291 262 275 181 148 149 150 163 156 103 141 116 169 160 121 293 42 167 178 225 194 247 281 335 313 285 316 303 303 305 307
358 351 308 238 262 290 329 22 354 5 337 301 266 254 221 239 233 236 178 168 166 162 144 142 132 152 131 181 230 206 189 149 230 330 240 311 318 304 301 308 305 301 304 302
356 352 347 356 284 281 295 312 235 358 327 295 283 234 212 222 220 243 228 196 165 147 167 133 149 179 191 190 181 179 205 214 228 256 280 308 228 337 324 316 315 309 309 301
355 345 346 7 318 298 312 322 201 216 308 276 287 295 234 215 218 215 207 195 197 170 168 170 217 205 147 170 157 220 187 196 184 220 228 268 285 322 341 330 326 323 315 318
337 330 331 341 311 302 314 245 244 272 281 304 309 305 265 218 217 211 208 210 208 215 195 204 207 209 165 160 207 221 205 222 233 242 264 287 298 301 329 337 336 330 317 313
323 313 315 321 303 297 273 253 277 236 288 297 300 289 254 223 207 201 211 222 214 225 235 232 221 178 180 140 227 241 217 229 243 251 267 276 293 295 318 327 349 338 339 307
317 314 316 317 305 304 323 316 252 272 270 242 258 272 282 204 191 196 208 202 208 220 228 239 170 131 126 229 237 229 220 220 240 244 252 272 299 300 315 312 342 348 349 349
322 318 321 329 13 61 333 296 248 194 217 207 247 225 278 196 209 198 183 207 186 208 218 220 147 126 221 220 193 205 215 217 237 239 257 273 280 310 319 305 343 358 358 8
328 326 10 14 14 333 316 337 277 222 213 231 259 244 263 268 208 213 105 241 189 238 214 161 116 236 247 195 183 220 212 214 244 223 246 274 296 311 306 315 341 359 5 2
338 5 10 328 326 312 269 277 299 259 261 225 243 245 240 288 223 163 196 207 265 327 297 133 185 286 294 205 226 214 203 205 201 246 260 286 305 304 298 326 332 6 7 9
277 282 293 271 205 177 251 187 192 239 249 243 246 286 295 292 247 121 9 274 163 285 248 30 25 321 180 250 293 210 212 217 243 236 246 268 283 301 316 318 331 351 14 23
287 248 230 201 178 73 192 263 267 253 236 249 284 317 330 32 27 78 81 289 312 31 55 140 206 222 232 264 351 264 224 232 252 244 252 264 277 301 323 311 336 349 6 12
243 225 295 178 208 235 193 198 233 271 264 282 310 198 44 17 47 353 87 248 82 70 352 2 218 219 251 249 323 241 225 218 238 237 269 258 269 281 302 276 335 16 32 53
253 243 247 198 205 253 262 278 267 306 285 252 150 73 203 265 159 194 345 38 49 358 303 272 270 217 235 271 300 231 219 222 221 225 244 247 231 245 254 260 326 17 38 63
244 240 243 138 252 250 225 276 246 8 6 96 58 159 26 351 109 49 29 78 246 231 229 301 274 240 247 260 273 309 258 222 220 199 225 241 229 229 224 207 215 91 50 37
244 228 225 208 266 240 182 182 57 55 24 19 73 36 290 336 62 48 165 203 230 258 315 295 276 266 237 250 259 275 269 294 241 243 244 268 212 213 223 181 204 191 136 73